User: anonymous   Login
Location: Fort Frances
(48.6170°N, 93.4170°W)
Time: 20:03:34
(UTC-05:00)
Language:

Iridium 53 - Orbit

View from above orbital plane
View from above orbital plane
View from above satellite
View from above satellite

Ground track
Ground track

The orbit data is extracted from the following two-line orbital elements,

1 25173U 98010E   18111.37593288  .00000174  00000-0  55139-4 0  9992
2 25173  86.4009 221.5226 0002160  97.4244 262.7198 14.34217989 55942
Epoch (UTC): 21 April 2018 09:01:20
Eccentricity: 0.0002160
inclination: 86.4009°
perigee height: 776 km
apogee height: 779 km
right ascension of ascending node: 221.5226°
argument of perigee: 97.4244°
revolutions per day: 14.34217989
mean anomaly at epoch: 262.7198°
orbit number at epoch: 5594

The dashed part of the orbit path shows where the satellite is in the earth's shadow,  

DLR